BX2AEA-13 Weather Reports


time (UTC)temp
C
wind
direction
speed
KPH
gust
KPH
rain 1hr
cm
rain 24hr
cm
rain mn
cm
humidity
%
barometer
mb
20260505032736 30 315 0.0 1.6 0.03 0.56 0.00 51 1010.0
20260505032149 30 90 0.0 1.6 0.03 0.56 0.00 51 1010.0
20260505031602 30 315 0.0 1.6 0.03 0.56 0.00 51 1009.9
20260505031015 30 315 0.0 1.6 0.03 0.56 0.00 51 1009.9
20260505030428 30 315 0.0 1.6 0.03 0.56 0.00 51 1009.9
20260505025841 30 45 0.0 0.0 0.03 0.56 0.00 51 1010.0
20260505025254 30 0 0.0 1.6 0.03 0.56 0.00 50 1010.2
20260505024707 30 90 0.0 1.6 0.05 0.56 0.00 50 1010.2
20260505024120 30 0 0.0 1.6 0.23 0.56 0.00 49 1010.2
20260505023533 30 0 0.0 1.6 0.33 0.56 0.00 49 1010.4
20260505022945 30 270 0.0 0.0 0.46 0.51 0.00 49 1010.7
20260505022358 30 315 0.0 0.0 0.48 0.51 0.00 49 1010.6
20260505021811 30 0 0.0 0.0 0.48 0.51 0.00 49 1010.6
20260505021224 30 225 0.0 0.0 0.51 0.51 0.00 49 1010.6
20260505020637 29 270 0.0 0.0 0.51 0.51 0.00 49 1010.6
20260505020050 29 0 0.0 1.6 0.51 0.51 0.00 49 1010.5
20260505015503 29 0 0.0 1.6 0.51 0.51 0.00 48 1010.5
20260505014916 29 45 0.0 0.0 0.48 0.48 0.00 47 1010.5
20260505014329 29 315 0.0 0.0 0.36 0.36 0.00 47 1010.6
20260505013742 30 315 0.0 0.0 0.23 0.23 0.00 47 1010.5
20260505013155 30 270 0.0 0.0 0.13 0.13 0.00 46 1010.6
20260505012608 30 315 0.0 1.6 0.03 0.03 0.00 46 1010.6
20260505012021 30 270 0.0 1.6 0.03 0.03 0.00 46 1010.7
20260505011434 30 225 0.0 0.0 0.00 0.00 0.00 46 1010.7
20260505010847 30 270 0.0 0.0 0.00 0.00 0.00 46 1010.7
20260505010300 30 270 0.0 0.0 0.00 0.00 0.00 46 1010.6
20260505005713 30 270 0.0 0.0 0.00 0.00 0.00 46 1010.6
20260505005126 30 270 0.0 0.0 0.00 0.00 0.00 46 1010.4
20260505004539 30 270 0.0 0.0 0.00 0.00 0.00 46 1010.4
20260505003952 30 225 0.0 1.6 0.00 0.00 0.00 46 1010.4
20260505003405 30 225 0.0 1.6 0.00 0.00 0.00 46 1010.3
20260505002818 29 270 0.0 1.6 0.00 0.00 0.00 46 1010.2
20260505002231 29 315 0.0 1.6 0.00 0.00 0.00 46 1010.2
20260505001644 29 0 0.0 0.0 0.00 0.00 0.00 46 1010.1
20260505001057 29 0 0.0 1.6 0.00 0.00 0.00 47 1010.1
20260505000510 29 0 0.0 1.6 0.00 0.00 0.00 47 1010.1
20260504235923 29 315 0.0 1.6 0.00 0.00 0.00 47 1010.0
20260504235336 29 0 0.0 1.6 0.00 0.00 0.00 47 1009.8
20260504234749 29 0 0.0 1.6 0.00 0.00 0.00 46 1009.9
20260504234202 29 315 0.0 0.0 0.00 0.00 0.00 47 1009.8
20260504233615 29 0 0.0 0.0 0.00 0.00 0.00 47 1009.8
20260504233028 29 315 0.0 1.6 0.00 0.00 0.00 47 1010.1
20260504232441 29 315 0.0 1.6 0.00 0.00 0.00 47 1010.0
20260504231854 29 270 0.0 0.0 0.00 0.00 0.00 47 1010.1
20260504231307 28 315 0.0 0.0 0.00 0.00 0.00 47 1010.0
20260504230720 28 270 0.0 1.6 0.00 0.00 0.00 47 1009.8
20260504230132 28 270 0.0 1.6 0.00 0.00 0.00 47 1009.8
20260504225545 28 225 0.0 0.0 0.00 0.00 0.00 47 1009.7
20260504224959 28 0 0.0 0.0 0.00 0.00 0.00 47 1009.6
20260504224411 28 315 0.0 1.6 0.00 0.00 0.00 47 1009.4
20260504223824 28 315 0.0 1.6 0.00 0.00 0.00 47 1009.4
20260504223237 28 270 0.0 0.0 0.00 0.00 0.00 46 1009.6
20260504222650 28 270 0.0 0.0 0.00 0.00 0.00 46 1009.4
20260504222103 28 270 0.0 0.0 0.00 0.00 0.00 46 1009.5
20260504221516 28 270 0.0 0.0 0.00 0.00 0.00 46 1009.4
20260504220929 28 270 0.0 0.0 0.00 0.00 0.00 46 1009.3
20260504220342 28 270 0.0 0.0 0.00 0.00 0.00 45 1009.3
20260504215755 28 315 0.0 0.0 0.00 0.00 0.00 45 1009.1
20260504215208 28 315 0.0 0.0 0.00 0.00 0.00 45 1009.1
20260504214621 28 315 0.0 0.0 0.00 0.00 0.00 45 1009.2
20260504214034 28 315 0.0 0.0 0.00 0.00 0.00 45 1009.2
20260504213447 28 315 0.0 0.0 0.00 0.00 0.00 45 1009.1
20260504212900 28 315 0.0 1.6 0.00 0.00 0.00 45 1009.0
20260504212313 28 315 0.0 1.6 0.00 0.00 0.00 45 1009.0
20260504211726 28 0 0.0 0.0 0.00 0.00 0.00 45 1008.8
20260504211139 28 0 0.0 0.0 0.00 0.00 0.00 44 1008.9
20260504210552 28 270 0.0 0.0 0.00 0.00 0.00 44 1009.1
20260504210005 28 0 0.0 0.0 0.00 0.00 0.00 44 1008.9
20260504205418 28 315 0.0 0.0 0.00 0.00 0.00 44 1009.0
20260504204831 28 315 0.0 0.0 0.00 0.00 0.00 44 1009.0
20260504204244 28 315 0.0 0.0 0.00 0.00 0.00 44 1008.9
20260504203657 28 270 0.0 0.0 0.00 0.00 0.00 44 1008.9
20260504203110 28 270 0.0 0.0 0.00 0.00 0.00 44 1008.7
20260504202523 28 270 0.0 0.0 0.00 0.00 0.00 44 1008.8
20260504201936 28 270 0.0 0.0 0.00 0.00 0.00 44 1008.8
20260504201349 28 270 0.0 0.0 0.00 0.00 0.00 44 1008.7
20260504200802 28 270 0.0 0.0 0.00 0.00 0.00 43 1008.6
20260504200215 28 270 0.0 0.0 0.00 0.00 0.00 43 1008.6
20260504195628 28 270 0.0 0.0 0.00 0.00 0.00 43 1008.6
20260504195041 28 225 0.0 0.0 0.00 0.00 0.00 43 1008.5
20260504194453 28 225 0.0 0.0 0.00 0.00 0.00 43 1008.5
20260504193907 28 225 0.0 0.0 0.00 0.00 0.00 43 1008.6
20260504193319 28 225 0.0 0.0 0.00 0.00 0.00 43 1008.6
20260504192732 28 225 0.0 1.6 0.00 0.00 0.00 42 1008.5
20260504192145 28 225 0.0 1.6 0.00 0.00 0.00 42 1008.6
20260504191558 28 225 0.0 0.0 0.00 0.00 0.00 42 1008.5
20260504191011 28 270 0.0 0.0 0.00 0.00 0.00 42 1008.6
20260504190424 28 315 0.0 0.0 0.00 0.00 0.00 42 1008.4
20260504185837 28 270 0.0 0.0 0.00 0.00 0.00 42 1008.4
20260504185250 28 315 0.0 0.0 0.00 0.00 0.00 42 1008.5
20260504184703 29 270 0.0 0.0 0.00 0.00 0.00 42 1008.5
20260504184116 29 0 0.0 0.0 0.00 0.00 0.00 41 1008.4
20260504183529 29 315 0.0 0.0 0.00 0.00 0.00 41 1008.5
20260504182942 29 315 0.0 0.0 0.00 0.00 0.00 41 1008.8
20260504182355 29 315 0.0 0.0 0.00 0.00 0.00 41 1008.8
20260504181808 29 45 0.0 0.0 0.00 0.00 0.00 41 1008.8
20260504181221 29 270 0.0 0.0 0.00 0.00 0.00 41 1009.0
20260504180634 29 315 0.0 0.0 0.00 0.00 0.00 40 1009.1
20260504180047 29 315 0.0 0.0 0.00 0.00 0.00 40 1009.0
20260504175500 29 315 0.0 0.0 0.00 0.00 0.00 40 1009.0
20260504174913 29 0 0.0 1.6 0.00 0.00 0.00 40 1009.0
20260504174326 29 270 0.0 1.6 0.00 0.00 0.00 40 1009.1
20260504173739 29 270 0.0 1.6 0.00 0.00 0.00 40 1009.2
20260504173152 29 270 0.0 0.0 0.00 0.00 0.00 39 1009.3
20260504172605 29 315 0.0 0.0 0.00 0.00 0.00 39 1009.6
20260504172018 29 315 0.0 0.0 0.00 0.00 0.00 39 1009.6
20260504171431 29 270 0.0 0.0 0.00 0.00 0.00 39 1009.6
20260504170844 29 270 0.0 0.0 0.00 0.00 0.00 39 1009.7
20260504170257 29 225 0.0 0.0 0.00 0.00 0.00 39 1009.7
20260504150716 30 180 0.0 1.6 0.00 0.00 0.00 35 1010.5
20260504150129 30 225 0.0 3.2 0.00 0.00 0.00 35 1010.6
20260504140926 31 270 0.0 0.0 0.00 0.00 0.00 33 1010.2
20260504140339 31 270 0.0 1.6 0.00 0.00 0.00 33 1010.1
20260504130549 31 315 0.0 0.0 0.00 0.00 0.00 31 1009.7
20260504120211 32 225 0.0 1.6 0.00 0.00 0.00 28 1010.1
20260504110421 33 90 0.0 3.2 0.00 0.00 0.00 27 1010.0
20260504081637 37 225 0.0 3.2 0.00 0.00 0.00 23 1008.5
20260504081050 37 270 0.0 3.2 0.00 0.00 0.00 23 1008.3
20260504080503 38 270 0.0 3.2 0.00 0.00 0.00 23 1008.1
20260504070126 39 315 0.0 1.6 0.00 0.00 0.00 24 1007.7
20260504050545 38 225 0.0 4.8 0.00 0.00 0.00 26 1008.7
20260504045958 38 315 0.0 4.8 0.00 0.00 0.00 26 1008.8
20260504045411 38 270 0.0 4.8 0.00 0.00 0.00 26 1008.7
20260504044824 38 225 0.0 3.2 0.00 0.00 0.00 26 1008.9
20260504044237 38 225 0.0 3.2 0.00 0.00 0.00 26 1008.9
20260504043650 38 270 0.0 4.8 0.00 0.00 0.00 26 1009.0
20260504043103 38 45 0.0 4.8 0.00 0.00 0.00 26 1008.9
20260504042516 38 0 0.0 3.2 0.00 0.00 0.00 27 1009.0
20260504041929 38 270 0.0 3.2 0.00 0.00 0.00 27 1009.1
20260504041342 37 270 0.0 3.2 0.00 0.00 0.00 27 1009.1
20260504040755 37 225 0.0 4.8 0.00 0.00 0.00 27 1009.1
20260504040208 37 0 0.0 4.8 0.00 0.00 0.00 27 1009.0
20260504035621 37 225 0.0 3.2 0.00 0.00 0.00 27 1009.2
20260504035034 37 270 0.0 4.8 0.00 0.00 0.00 27 1009.3
20260504034447 37 315 0.0 4.8 0.00 0.00 0.00 27 1009.6
20260504033900 37 135 0.0 4.8 0.00 0.00 0.00 27 1009.4
20260504033313 38 315 0.0 4.8 0.00 0.00 0.00 27 1009.5